Weather History for KP60 - December, 2013

Change the Weather History Date:

Friday, December 20, 2013

  Actual Average Record
Temperature  
Mean Temperature 3 °F 13 °F  
Max Temperature 15 °F 23 °F 33 °F (2001)
Min Temperature -9 °F 3 °F -28 °F (1998)
Degree Days  
Heating Degree Days 62 52  
Month to date heating degree days 1167 1017  
Since 1 July heating degree days 4395 4337  
Cooling Degree Days 0 0  
Month to date cooling degree days 0 0  
Year to date cooling degree days 0 0  
Moisture  
Dew Point 0 °F    
Average Humidity 83    
Maximum Humidity 96    
Minimum Humidity 70    
Precipitation  
Precipitation 0.10 in 0.04 in 0.35 in (2007)
Month to date precipitation 1.04 0.91  
Year to date precipitation 19.93 19.71  
Sea Level Pressure  
Sea Level Pressure 30.00 in    
Wind  
Wind Speed 2 mph (NW)    
Max Wind Speed 13 mph    
Max Gust Speed 22 mph    
T = Trace of Precipitation, MM = Missing Value Source: NWS Daily Summary

Daily Weather History Graph

Daily Weather History Graph

Search for Another Location

Airport or City:

Trip Planner

Search our weather history database for the weather conditions in past years. The results will help you decide how hot, cold, wet, or windy it might be!

Date:

Astronomy

Dec. 20, 2013 Rise Set
Actual Time 7:54 AM MST 4:44 PM MST
Civil Twilight 7:21 AM MST 5:17 PM MST
Nautical Twilight 6:44 AM MST 5:54 PM MST
Astronomical Twilight 6:08 AM MST 6:30 PM MST
Moon 8:15 PM MST (12/20) 9:44 AM MST (12/20)
Length of Visible Light 9h 56m
Length of Day
8h 49m
Waning Gibbous, 90% of the Moon is Illuminated
Dec 20
Waning Gibbous
Dec 25
Last Quarter
Jan 1
New
Jan 7
First Quarter
Jan 15
Full

Hourly Weather History & Observations

Time (MST) Temp. Windchill Dew Point Humidity Pressure Visibility Wind Dir Wind Speed Gust Speed Precip Events Conditions
12:56 AM -5.1 °F -13.6 °F -9.0 °F 83% 30.05 in - NW 3.5 mph - N/A   Unknown
1:56 AM -4.0 °F - -8.0 °F 83% 30.05 in - Calm Calm - N/A   Unknown
2:56 AM -2.9 °F - -7.1 °F 82% 30.03 in - Calm Calm - N/A   Unknown
3:56 AM -5.1 °F - -9.0 °F 83% 30.04 in - Calm Calm - N/A   Unknown
4:56 AM -6.0 °F -14.7 °F -9.9 °F 83% 30.06 in - WNW 3.5 mph - N/A   Unknown
5:56 AM -8.0 °F - -13.0 °F 79% 30.10 in - Calm Calm - N/A   Unknown
6:56 AM -7.1 °F - -11.9 °F 79% 30.09 in - Calm Calm - N/A   Unknown
7:56 AM -7.1 °F -15.9 °F -11.9 °F 79% 30.13 in - NW 3.5 mph - N/A   Unknown
8:56 AM -2.9 °F - -7.1 °F 82% 30.13 in - Calm Calm - N/A   Unknown
9:56 AM 5.0 °F - 3.0 °F 92% 30.09 in - Calm Calm - N/A   Unknown
10:56 AM 9.0 °F - 6.1 °F 88% 30.08 in - Calm Calm - N/A   Unknown
11:56 AM 12.9 °F 2.6 °F 6.1 °F 74% 30.04 in - Variable 6.9 mph - N/A   Unknown
12:56 PM 14.0 °F 8.2 °F 6.1 °F 71% 29.98 in - Variable 3.5 mph - N/A   Unknown
1:56 PM 14.0 °F 5.1 °F 6.1 °F 71% 29.98 in - Variable 5.8 mph - N/A   Unknown
2:56 PM 12.0 °F 2.7 °F 5.0 °F 73% 29.97 in - Variable 5.8 mph - N/A   Unknown
3:56 PM 10.0 °F 0.4 °F 6.1 °F 84% 29.99 in - Variable 5.8 mph - N/A   Unknown
4:56 PM 10.0 °F 3.6 °F 6.1 °F 84% 29.99 in - Variable 3.5 mph - N/A   Unknown
5:56 PM 9.0 °F - 5.0 °F 84% 29.97 in - Calm Calm - N/A   Unknown
6:56 PM 9.0 °F - 3.9 °F 80% 29.96 in - Calm Calm - 0.01 in   Unknown
7:56 PM 9.0 °F 0.6 °F 3.9 °F 80% 29.96 in - Variable 4.6 mph - 0.02 in   Unknown
8:56 PM 9.0 °F - 5.0 °F 84% 29.91 in - Calm Calm - 0.02 in   Unknown
9:56 PM 8.1 °F - 5.0 °F 87% 29.86 in - Calm Calm - 0.02 in   Unknown
10:56 PM 9.0 °F - 5.0 °F 84% 29.82 in - Calm Calm - 0.01 in   Unknown
11:56 PM 9.0 °F - 6.1 °F 88% 29.78 in - Calm Calm - 0.02 in   Unknown